station,datetime,latitude [degrees_east],longitude [degrees_west],elevation [m],relative_humidity [%],temperature_2m [degC],temperature_9m [degC],solar_insolation [watt/m**2],station_pressure [mbar],wind_speed [m/s],wind_maximum [m/s],wind_direction [degrees],precip_since_00Z [mm],soil_temperature_5cm [degC],soil_temperature_25cm [degC],soil_temperature_50cm [degC],soil_moisture_5cm [m**3/m**3],soil_moisture_25cm [m**3/m**3],soil_moisture_50cm [m**3/m**3]
WFMB,20170701T000000,44.39323,73.85883,614.6,100,19.0,19.1,26,941.25,0,0,272,45.74,20.2,17.5,16.2,0.5,0.4,0.4
WFMB,20170701T000500,44.39323,73.85883,614.6,100,19.0,19.1,17,941.31,0,1,329,0.0,20.1,17.5,16.2,0.5,0.4,0.4
WFMB,20170701T001000,44.39323,73.85883,614.6,100,18.9,19.1,12,941.41,0,1,246,0.0,20.1,17.5,16.2,0.5,0.4,0.4
WFMB,20170701T001500,44.39323,73.85883,614.6,100,18.8,19.1,8,941.43,0,1,271,0.0,20.1,17.5,16.2,0.5,0.4,0.4
WFMB,20170701T002000,44.39323,73.85883,614.6,100,18.7,19.0,10,941.37,0,1,222,0.0,20.1,17.5,16.2,0.5,0.4,0.4
WFMB,20170701T002500,44.39323,73.85883,614.6,100,18.7,19.0,8,941.31,0,1,241,0.0,20.1,17.5,16.2,0.5,0.4,0.4
WFMB,20170701T003000,44.39323,73.85883,614.6,100,18.7,18.9,3,941.42,0,1,223,0.0,20.1,17.5,16.2,0.5,0.4,0.4
WFMB,20170701T003500,44.39323,73.85883,614.6,100,18.6,18.8,2,941.46,0,1,270,0.16,20.1,17.5,16.2,0.5,0.4,0.4
WFMB,20170701T004000,44.39323,73.85883,614.6,100,18.4,18.4,2,941.51,1,1,276,0.16,20.1,17.5,16.2,0.5,0.4,0.4
WFMB,20170701T004500,44.39323,73.85883,614.6,100,18.1,18.3,2,941.6,1,2,265,0.16,20.1,17.5,16.2,0.5,0.4,0.4
WFMB,20170701T005000,44.39323,73.85883,614.6,100,18.1,18.3,2,941.69,1,3,280,0.16,20.0,17.5,16.2,0.5,0.4,0.4
WFMB,20170701T005500,44.39323,73.85883,614.6,99,18.0,18.2,1,941.68,1,3,285,0.16,20.0,17.5,16.2,0.5,0.4,0.4
WFMB,20170701T010000,44.39323,73.85883,614.6,100,17.8,18.0,1,941.75,1,3,271,0.16,19.9,17.5,16.2,0.5,0.4,0.4
WFMB,20170701T010500,44.39323,73.85883,614.6,98,17.9,18.1,1,941.84,1,2,273,0.16,19.9,17.5,16.2,0.4,0.4,0.4
WFMB,20170701T011000,44.39323,73.85883,614.6,100,17.7,17.9,0,941.89,1,3,249,0.16,19.9,17.5,16.3,0.4,0.4,0.4
WFMB,20170701T011500,44.39323,73.85883,614.6,100,17.6,17.8,0,941.96,1,2,291,0.16,19.9,17.5,16.3,0.4,0.4,0.4
WFMB,20170701T012000,44.39323,73.85883,614.6,100,17.6,17.9,0,942.01,1,2,291,0.16,19.9,17.5,16.2,0.4,0.4,0.4
WFMB,20170701T012500,44.39323,73.85883,614.6,99,17.6,17.8,0,942.07,1,3,287,0.16,19.9,17.5,16.2,0.4,0.4,0.4
WFMB,20170701T013000,44.39323,73.85883,614.6,99,17.6,17.9,0,942.01,2,5,290,0.16,19.9,17.5,16.3,0.4,0.4,0.4
WFMB,20170701T013500,44.39323,73.85883,614.6,97,17.7,17.9,0,941.93,1,4,263,0.16,19.9,17.5,16.3,0.4,0.4,0.4
WFMB,20170701T014000,44.39323,73.85883,614.6,96,17.7,18.0,0,941.96,2,4,283,0.16,19.9,17.5,16.2,0.4,0.4,0.4
WFMB,20170701T014500,44.39323,73.85883,614.6,96,17.7,18.0,0,942.04,1,4,280,0.16,19.9,17.5,16.2,0.4,0.4,0.4
WFMB,20170701T015000,44.39323,73.85883,614.6,97,17.8,17.9,0,942.04,1,3,262,0.16,19.7,17.6,16.3,0.4,0.4,0.4
WFMB,20170701T015500,44.39323,73.85883,614.6,98,17.7,18.0,0,942.01,1,4,278,0.16,19.7,17.6,16.3,0.4,0.4,0.4
WFMB,20170701T020000,44.39323,73.85883,614.6,96,17.8,17.9,0,941.99,2,5,269,0.16,19.7,17.7,16.3,0.4,0.4,0.4
WFMB,20170701T020500,44.39323,73.85883,614.6,95,17.6,17.8,0,942.04,2,5,250,0.16,19.7,17.7,16.3,0.4,0.4,0.4
WFMB,20170701T021000,44.39323,73.85883,614.6,95,17.5,17.8,0,942.05,1,4,268,0.16,19.7,17.7,16.3,0.4,0.4,0.4
WFMB,20170701T021500,44.39323,73.85883,614.6,96,17.5,17.8,0,941.95,1,5,291,0.16,19.7,17.7,16.3,0.4,0.4,0.4
WFMB,20170701T022000,44.39323,73.85883,614.6,95,17.6,17.8,0,941.89,1,4,277,0.16,19.5,17.7,16.3,0.4,0.4,0.4
WFMB,20170701T022500,44.39323,73.85883,614.6,94,17.5,18.8,0,941.88,1,3,266,0.16,19.5,17.7,16.3,0.4,0.4,0.4
WFMB,20170701T023000,44.39323,73.85883,614.6,92,17.5,19.2,0,941.95,1,3,317,0.16,19.5,17.7,16.3,0.4,0.4,0.4
WFMB,20170701T023500,44.39323,73.85883,614.6,95,17.3,19.1,0,942.01,1,3,195,0.16,19.5,17.7,16.3,0.4,0.4,0.4
WFMB,20170701T024000,44.39323,73.85883,614.6,95,17.2,19.0,0,941.96,1,4,334,0.16,19.5,17.7,16.3,0.4,0.4,0.4
WFMB,20170701T024500,44.39323,73.85883,614.6,98,17.1,18.8,0,941.94,1,2,296,0.16,19.5,17.7,16.3,0.4,0.4,0.4
WFMB,20170701T025000,44.39323,73.85883,614.6,98,17.2,18.9,0,941.94,0,2,288,0.16,19.5,17.7,16.3,0.4,0.4,0.4
WFMB,20170701T025500,44.39323,73.85883,614.6,99,17.1,18.5,0,941.88,1,3,237,0.16,19.3,17.7,16.3,0.4,0.4,0.4
WFMB,20170701T030000,44.39323,73.85883,614.6,100,17.0,18.1,0,941.9,1,1,268,0.16,19.3,17.7,16.3,0.4,0.4,0.4
WFMB,20170701T030500,44.39323,73.85883,614.6,99,16.9,18.3,0,941.92,1,2,245,0.16,19.3,17.7,16.3,0.4,0.4,0.4
WFMB,20170701T031000,44.39323,73.85883,614.6,96,17.3,18.8,0,941.97,1,3,274,0.16,19.3,17.7,16.3,0.3,0.4,0.4
WFMB,20170701T031500,44.39323,73.85883,614.6,98,16.9,18.1,0,942.0,1,2,324,0.16,19.3,17.7,16.3,0.3,0.4,0.4
WFMB,20170701T032000,44.39323,73.85883,614.6,95,17.5,18.7,0,942.04,1,4,264,0.16,19.3,17.7,16.3,0.3,0.4,0.4
WFMB,20170701T032500,44.39323,73.85883,614.6,92,17.8,18.9,0,942.06,1,3,252,0.16,19.1,17.7,16.3,0.3,0.4,0.4
WFMB,20170701T033000,44.39323,73.85883,614.6,94,17.7,18.6,0,942.02,1,4,282,0.16,19.1,17.7,16.3,0.3,0.4,0.4
WFMB,20170701T033500,44.39323,73.85883,614.6,89,18.4,19.1,0,942.06,1,4,275,0.16,19.1,17.7,16.3,0.3,0.4,0.4
WFMB,20170701T034000,44.39323,73.85883,614.6,91,17.8,18.8,0,942.18,1,2,299,0.16,19.1,17.7,16.3,0.3,0.4,0.4
WFMB,20170701T034500,44.39323,73.85883,614.6,91,17.7,19.0,0,942.1,1,5,245,0.16,19.1,17.7,16.3,0.3,0.4,0.4
WFMB,20170701T035000,44.39323,73.85883,614.6,86,18.4,19.4,0,942.15,1,4,276,0.16,19.1,17.7,16.3,0.3,0.4,0.4
WFMB,20170701T035500,44.39323,73.85883,614.6,87,18.2,19.2,0,942.14,1,5,265,0.16,19.1,17.7,16.3,0.3,0.4,0.4
WFMB,20170701T040000,44.39323,73.85883,614.6,88,17.8,18.9,0,942.12,1,4,258,0.16,19.0,17.7,16.3,0.3,0.4,0.4
WFMB,20170701T040500,44.39323,73.85883,614.6,89,18.0,18.8,0,942.1,1,2,279,0.16,18.9,17.7,16.3,0.3,0.4,0.4
WFMB,20170701T041000,44.39323,73.85883,614.6,89,17.9,18.9,0,942.1,1,3,266,0.16,18.9,17.8,16.3,0.3,0.4,0.4
WFMB,20170701T041500,44.39323,73.85883,614.6,86,18.3,19.0,0,942.19,1,2,140,0.16,18.9,17.7,16.3,0.3,0.4,0.4
WFMB,20170701T042000,44.39323,73.85883,614.6,88,17.9,19.0,0,942.29,1,3,349,0.16,18.9,17.7,16.3,0.3,0.4,0.4
WFMB,20170701T042500,44.39323,73.85883,614.6,95,17.2,17.7,0,942.18,1,2,181,0.16,18.9,17.8,16.3,0.3,0.4,0.4
WFMB,20170701T043000,44.39323,73.85883,614.6,99,16.9,17.3,0,942.12,1,1,91,0.16,18.9,17.8,16.3,0.3,0.4,0.4
WFMB,20170701T043500,44.39323,73.85883,614.6,100,17.0,17.5,0,942.13,1,3,21,0.16,18.8,17.9,16.3,0.3,0.4,0.4
WFMB,20170701T044000,44.39323,73.85883,614.6,100,16.7,17.2,0,942.2,1,2,28,0.16,18.8,17.9,16.3,0.3,0.4,0.4
WFMB,20170701T044500,44.39323,73.85883,614.6,96,17.5,18.5,0,942.18,1,4,269,0.16,18.8,17.9,16.3,0.3,0.4,0.4
WFMB,20170701T045000,44.39323,73.85883,614.6,94,17.4,18.9,0,942.06,1,2,181,0.16,18.8,17.9,16.3,0.3,0.4,0.4
WFMB,20170701T045500,44.39323,73.85883,614.6,87,18.5,19.2,0,941.97,1,5,265,0.16,18.8,17.9,16.3,0.3,0.4,0.4
WFMB,20170701T050000,44.39323,73.85883,614.6,87,18.3,19.3,0,942.15,1,4,291,0.16,18.8,17.9,16.3,0.3,0.4,0.4
WFMB,20170701T050500,44.39323,73.85883,614.6,87,18.4,19.2,0,942.13,1,5,282,0.16,18.8,17.9,16.3,0.3,0.4,0.4
WFMB,20170701T051000,44.39323,73.85883,614.6,90,18.1,19.3,0,942.14,1,3,213,0.16,18.8,17.9,16.3,0.3,0.4,0.4
WFMB,20170701T051500,44.39323,73.85883,614.6,92,17.6,18.0,0,942.22,1,1,182,0.16,18.8,17.9,16.3,0.3,0.4,0.4
WFMB,20170701T052000,44.39323,73.85883,614.6,93,17.8,18.3,0,942.24,1,4,273,0.16,18.8,17.9,16.3,0.3,0.4,0.4
WFMB,20170701T052500,44.39323,73.85883,614.6,89,18.5,19.0,0,942.28,1,4,277,0.16,18.8,17.9,16.3,0.3,0.4,0.4
WFMB,20170701T053000,44.39323,73.85883,614.6,92,17.8,18.6,0,942.15,1,4,250,0.16,18.6,17.9,16.3,0.3,0.4,0.4
WFMB,20170701T053500,44.39323,73.85883,614.6,92,18.1,18.8,0,942.14,1,4,296,0.16,18.6,17.9,16.3,0.3,0.4,0.4
WFMB,20170701T054000,44.39323,73.85883,614.6,92,17.9,18.8,0,942.11,1,5,247,0.16,18.6,17.9,16.3,0.3,0.4,0.4
WFMB,20170701T054500,44.39323,73.85883,614.6,92,17.9,18.8,0,942.13,1,3,324,0.16,18.6,17.9,16.3,0.3,0.4,0.4
WFMB,20170701T055000,44.39323,73.85883,614.6,92,17.9,18.8,0,942.08,1,3,300,0.16,18.5,17.9,16.3,0.3,0.4,0.4
WFMB,20170701T055500,44.39323,73.85883,614.6,92,18.1,19.0,0,942.1,1,5,271,0.16,18.5,17.9,16.3,0.3,0.4,0.4
WFMB,20170701T060000,44.39323,73.85883,614.6,93,17.9,18.8,0,942.18,1,5,263,0.16,18.4,17.9,16.3,0.3,0.4,0.4
WFMB,20170701T060500,44.39323,73.85883,614.6,91,18.5,19.1,0,942.02,2,6,266,0.16,18.4,17.9,16.3,0.3,0.4,0.4
WFMB,20170701T061000,44.39323,73.85883,614.6,91,18.4,19.1,0,942.07,2,6,272,0.16,18.4,17.9,16.3,0.3,0.4,0.4
WFMB,20170701T061500,44.39323,73.85883,614.6,91,18.3,19.1,0,942.13,1,4,248,0.16,18.4,17.9,16.3,0.3,0.4,0.4
WFMB,20170701T062000,44.39323,73.85883,614.6,90,18.5,19.2,0,942.21,1,3,266,0.16,18.4,17.9,16.3,0.3,0.4,0.4
WFMB,20170701T062500,44.39323,73.85883,614.6,92,18.2,19.1,0,942.1,1,4,276,0.16,18.4,17.9,16.3,0.3,0.4,0.4
WFMB,20170701T063000,44.39323,73.85883,614.6,92,18.4,19.1,0,942.08,1,3,283,0.16,18.4,17.9,16.3,0.3,0.3,0.4
WFMB,20170701T063500,44.39323,73.85883,614.6,91,18.5,19.3,0,942.06,2,5,272,0.16,18.4,17.9,16.3,0.3,0.3,0.4
WFMB,20170701T064000,44.39323,73.85883,614.6,93,18.3,19.2,0,942.01,1,4,281,0.16,18.4,17.9,16.3,0.3,0.3,0.4
WFMB,20170701T064500,44.39323,73.85883,614.6,90,18.7,19.4,0,942.04,1,4,263,0.16,18.3,17.9,16.3,0.3,0.3,0.4
WFMB,20170701T065000,44.39323,73.85883,614.6,91,18.5,19.3,0,942.05,1,4,274,0.16,18.3,17.9,16.3,0.3,0.3,0.4
WFMB,20170701T065500,44.39323,73.85883,614.6,90,18.8,19.4,0,942.0,1,3,275,0.16,18.2,17.9,16.3,0.3,0.3,0.4
WFMB,20170701T070000,44.39323,73.85883,614.6,90,18.6,19.4,0,941.96,1,3,291,0.16,18.2,17.9,16.3,0.3,0.3,0.4
WFMB,20170701T070500,44.39323,73.85883,614.6,91,18.3,19.2,0,942.01,1,3,278,0.16,18.2,17.9,16.3,0.3,0.3,0.4
WFMB,20170701T071000,44.39323,73.85883,614.6,89,18.5,19.4,0,942.0,1,5,269,0.16,18.2,17.9,16.3,0.3,0.3,0.4
WFMB,20170701T071500,44.39323,73.85883,614.6,90,18.5,19.3,0,941.99,1,3,305,0.16,18.2,17.9,16.3,0.3,0.3,0.4
WFMB,20170701T072000,44.39323,73.85883,614.6,91,18.4,19.3,0,941.91,1,2,281,0.16,18.2,17.9,16.3,0.3,0.3,0.4
WFMB,20170701T072500,44.39323,73.85883,614.6,92,18.3,19.1,0,941.9,1,3,300,0.16,18.2,17.9,16.3,0.3,0.3,0.4
WFMB,20170701T073000,44.39323,73.85883,614.6,93,18.2,19.0,0,941.81,1,2,301,0.16,18.2,17.9,16.3,0.3,0.3,0.4
WFMB,20170701T073500,44.39323,73.85883,614.6,91,18.2,19.2,0,941.78,0,1,218,0.16,18.2,17.9,16.3,0.3,0.3,0.4
WFMB,20170701T074000,44.39323,73.85883,614.6,93,17.7,18.3,0,941.79,0,1,191,0.16,18.1,17.9,16.3,0.3,0.3,0.4
WFMB,20170701T074500,44.39323,73.85883,614.6,95,17.4,17.9,0,941.83,0,1,257,0.16,18.0,17.9,16.4,0.3,0.3,0.4
WFMB,20170701T075000,44.39323,73.85883,614.6,96,17.5,18.3,0,941.82,0,1,315,0.16,18.0,17.9,16.4,0.3,0.3,0.4
WFMB,20170701T075500,44.39323,73.85883,614.6,94,17.5,18.9,0,941.76,1,2,262,0.16,18.0,17.9,16.4,0.3,0.3,0.4
WFMB,20170701T080000,44.39323,73.85883,614.6,94,17.7,18.7,0,941.81,0,2,314,0.16,18.0,17.9,16.4,0.3,0.3,0.4
WFMB,20170701T080500,44.39323,73.85883,614.6,93,17.7,18.8,0,941.82,0,1,302,0.16,18.0,17.9,16.4,0.3,0.3,0.4
WFMB,20170701T081000,44.39323,73.85883,614.6,94,17.6,18.8,0,941.79,0,1,345,0.16,18.0,17.9,16.4,0.3,0.3,0.4
WFMB,20170701T081500,44.39323,73.85883,614.6,93,17.5,18.7,0,941.85,0,2,207,0.16,18.0,17.9,16.4,0.3,0.3,0.4
WFMB,20170701T082000,44.39323,73.85883,614.6,93,17.5,18.4,0,941.88,1,1,170,0.16,18.0,17.9,16.5,0.3,0.3,0.4
WFMB,20170701T082500,44.39323,73.85883,614.6,96,16.9,18.1,0,941.88,1,1,237,0.16,18.0,17.9,16.4,0.3,0.3,0.4
WFMB,20170701T083000,44.39323,73.85883,614.6,96,17.0,18.6,0,941.92,0,1,231,0.16,18.0,17.9,16.5,0.3,0.3,0.4
WFMB,20170701T083500,44.39323,73.85883,614.6,97,17.0,18.4,0,941.96,0,1,242,0.16,18.0,17.9,16.5,0.3,0.3,0.4
WFMB,20170701T084000,44.39323,73.85883,614.6,98,16.8,18.4,0,942.03,1,1,244,0.16,17.9,17.9,16.5,0.3,0.3,0.4
WFMB,20170701T084500,44.39323,73.85883,614.6,99,16.9,17.8,0,942.09,0,1,267,0.16,17.9,17.9,16.5,0.3,0.3,0.4
WFMB,20170701T085000,44.39323,73.85883,614.6,99,16.8,18.2,0,941.97,0,1,259,0.16,17.9,17.8,16.5,0.3,0.3,0.4
WFMB,20170701T085500,44.39323,73.85883,614.6,99,16.9,18.9,0,942.12,1,1,255,0.16,17.9,17.9,16.5,0.3,0.3,0.4
WFMB,20170701T090000,44.39323,73.85883,614.6,99,16.9,18.4,1,942.22,0,1,261,0.16,17.9,17.8,16.5,0.3,0.3,0.4
WFMB,20170701T090500,44.39323,73.85883,614.6,98,16.9,18.2,1,942.2,1,1,240,0.16,17.9,17.8,16.5,0.3,0.3,0.4
WFMB,20170701T091000,44.39323,73.85883,614.6,98,16.8,18.0,1,942.18,1,1,243,0.16,17.9,17.8,16.5,0.3,0.3,0.4
WFMB,20170701T091500,44.39323,73.85883,614.6,98,16.8,17.3,3,942.17,1,1,255,0.16,17.9,17.8,16.5,0.3,0.3,0.4
WFMB,20170701T092000,44.39323,73.85883,614.6,97,16.8,18.9,2,942.17,0,1,215,0.16,17.9,17.8,16.5,0.3,0.3,0.4
WFMB,20170701T092500,44.39323,73.85883,614.6,98,16.7,17.7,2,942.14,1,1,243,0.16,17.9,17.8,16.5,0.3,0.3,0.4
WFMB,20170701T093000,44.39323,73.85883,614.6,98,16.8,17.8,4,942.19,1,2,262,0.16,17.9,17.8,16.5,0.3,0.3,0.4
WFMB,20170701T093500,44.39323,73.85883,614.6,97,16.8,18.1,8,942.18,1,1,254,0.16,17.9,17.8,16.5,0.3,0.3,0.4
WFMB,20170701T094000,44.39323,73.85883,614.6,96,17.0,18.2,12,942.18,1,1,265,0.16,17.9,17.8,16.5,0.3,0.3,0.4
WFMB,20170701T094500,44.39323,73.85883,614.6,96,16.9,18.1,18,942.23,1,2,271,0.16,17.9,17.7,16.5,0.3,0.3,0.4
WFMB,20170701T095000,44.39323,73.85883,614.6,97,17.0,18.2,21,942.36,0,1,259,0.16,17.9,17.7,16.5,0.3,0.3,0.4
WFMB,20170701T095500,44.39323,73.85883,614.6,97,16.9,18.4,23,942.5,0,1,235,0.16,17.9,17.7,16.5,0.3,0.3,0.4
WFMB,20170701T100000,44.39323,73.85883,614.6,97,17.0,18.3,25,942.44,0,0,272,0.16,17.8,17.7,16.5,0.3,0.3,0.4
WFMB,20170701T100500,44.39323,73.85883,614.6,97,17.0,17.8,29,942.35,0,0,318,0.16,17.8,17.7,16.5,0.3,0.3,0.4
WFMB,20170701T101000,44.39323,73.85883,614.6,98,16.8,17.7,31,942.36,0,1,242,0.16,17.7,17.7,16.5,0.3,0.3,0.4
WFMB,20170701T101500,44.39323,73.85883,614.6,97,16.9,18.0,33,942.44,0,0,308,0.16,17.7,17.7,16.5,0.3,0.3,0.4
WFMB,20170701T102000,44.39323,73.85883,614.6,97,16.9,18.1,37,942.53,0,1,255,0.16,17.7,17.7,16.5,0.3,0.3,0.4
WFMB,20170701T102500,44.39323,73.85883,614.6,98,16.9,17.9,40,942.68,1,1,249,0.16,17.7,17.7,16.5,0.3,0.3,0.4
WFMB,20170701T103000,44.39323,73.85883,614.6,99,16.9,18.1,47,942.64,0,0,261,0.16,17.7,17.7,16.5,0.3,0.3,0.4
WFMB,20170701T103500,44.39323,73.85883,614.6,99,17.0,18.1,50,942.68,0,0,0,0.16,17.7,17.7,16.5,0.3,0.3,0.4
WFMB,20170701T104000,44.39323,73.85883,614.6,98,17.1,18.4,52,942.64,0,0,298,0.16,17.7,17.7,16.5,0.3,0.3,0.4
WFMB,20170701T104500,44.39323,73.85883,614.6,98,17.1,18.0,52,942.65,0,1,285,0.16,17.7,17.7,16.5,0.3,0.3,0.4
WFMB,20170701T105000,44.39323,73.85883,614.6,99,17.1,17.8,59,942.69,0,1,247,0.16,17.7,17.7,16.5,0.3,0.3,0.4
WFMB,20170701T105500,44.39323,73.85883,614.6,99,17.2,18.2,86,942.71,0,0,267,0.16,17.7,17.7,16.5,0.3,0.3,0.4
WFMB,20170701T110000,44.39323,73.85883,614.6,99,17.4,18.1,114,942.63,0,0,50,0.16,17.7,17.7,16.5,0.3,0.3,0.4
WFMB,20170701T110500,44.39323,73.85883,614.6,99,17.6,18.2,110,942.65,0,0,0,0.16,17.8,17.7,16.5,0.3,0.3,0.4
WFMB,20170701T111000,44.39323,73.85883,614.6,97,17.9,18.4,75,942.67,0,0,186,0.16,17.8,17.7,16.5,0.3,0.3,0.4
WFMB,20170701T111500,44.39323,73.85883,614.6,97,17.7,18.4,71,942.71,0,0,5,0.16,17.9,17.7,16.5,0.3,0.3,0.4
WFMB,20170701T112000,44.39323,73.85883,614.6,96,17.8,18.4,70,942.8,0,0,344,0.16,17.9,17.7,16.5,0.3,0.3,0.4
WFMB,20170701T112500,44.39323,73.85883,614.6,97,17.7,18.5,94,942.84,0,1,330,0.16,17.9,17.7,16.5,0.3,0.3,0.4
WFMB,20170701T113000,44.39323,73.85883,614.6,97,18.0,18.6,156,942.93,1,1,356,0.16,17.9,17.7,16.5,0.3,0.3,0.4
WFMB,20170701T113500,44.39323,73.85883,614.6,96,18.2,18.5,93,943.0,0,1,16,0.16,17.9,17.7,16.5,0.3,0.3,0.4
WFMB,20170701T114000,44.39323,73.85883,614.6,95,18.1,18.4,58,942.98,1,1,6,0.16,17.9,17.7,16.5,0.3,0.3,0.4
WFMB,20170701T114500,44.39323,73.85883,614.6,95,17.9,18.4,69,942.95,0,1,327,0.16,17.9,17.7,16.5,0.3,0.3,0.4
WFMB,20170701T115000,44.39323,73.85883,614.6,97,17.9,18.3,88,942.96,0,1,191,0.16,17.9,17.7,16.5,0.3,0.3,0.4
WFMB,20170701T115500,44.39323,73.85883,614.6,97,17.9,18.6,97,942.98,0,2,245,0.16,17.9,17.7,16.5,0.3,0.3,0.4
WFMB,20170701T120000,44.39323,73.85883,614.6,92,18.3,19.0,142,942.93,0,1,34,0.16,17.9,17.7,16.5,0.3,0.3,0.4
WFMB,20170701T120500,44.39323,73.85883,614.6,96,18.3,19.0,211,942.93,0,1,50,0.16,18.0,17.7,16.5,0.3,0.3,0.4
WFMB,20170701T121000,44.39323,73.85883,614.6,95,18.7,19.1,188,942.98,0,0,0,0.16,18.0,17.7,16.5,0.3,0.3,0.4
WFMB,20170701T121500,44.39323,73.85883,614.6,90,19.0,19.3,186,942.98,0,1,27,0.16,18.0,17.7,16.5,0.3,0.3,0.4
WFMB,20170701T122000,44.39323,73.85883,614.6,87,19.4,19.6,162,942.96,0,1,60,0.16,18.0,17.7,16.5,0.3,0.3,0.4
WFMB,20170701T122500,44.39323,73.85883,614.6,91,18.8,19.3,82,942.89,0,1,83,0.16,18.0,17.7,16.5,0.3,0.3,0.4
WFMB,20170701T123000,44.39323,73.85883,614.6,90,18.6,18.9,56,942.85,0,1,88,0.16,18.0,17.7,16.5,0.3,0.3,0.4
WFMB,20170701T123500,44.39323,73.85883,614.6,94,18.4,18.6,59,942.9,0,1,6,0.16,18.0,17.7,16.5,0.3,0.3,0.4
WFMB,20170701T124000,44.39323,73.85883,614.6,96,18.2,18.4,85,942.84,0,1,11,0.16,18.0,17.7,16.5,0.3,0.3,0.4
WFMB,20170701T124500,44.39323,73.85883,614.6,97,18.3,18.5,140,942.76,0,0,71,0.16,18.1,17.7,16.5,0.3,0.3,0.4
WFMB,20170701T125000,44.39323,73.85883,614.6,93,18.5,18.7,83,942.73,0,1,341,0.16,18.2,17.7,16.5,0.3,0.3,0.4
WFMB,20170701T125500,44.39323,73.85883,614.6,95,18.4,18.5,83,942.62,0,1,67,0.16,18.2,17.7,16.5,0.3,0.3,0.4
WFMB,20170701T130000,44.39323,73.85883,614.6,95,18.3,18.5,81,942.61,0,1,11,0.16,18.2,17.7,16.5,0.3,0.3,0.4
WFMB,20170701T130500,44.39323,73.85883,614.6,96,18.2,18.3,78,942.57,0,0,141,0.16,18.2,17.7,16.5,0.3,0.3,0.4
WFMB,20170701T131000,44.39323,73.85883,614.6,95,18.3,18.4,91,942.45,0,1,357,0.16,18.2,17.7,16.5,0.3,0.3,0.4
WFMB,20170701T131500,44.39323,73.85883,614.6,98,18.2,18.6,180,942.31,1,1,342,0.16,18.2,17.7,16.5,0.3,0.3,0.4
WFMB,20170701T132000,44.39323,73.85883,614.6,96,18.6,18.8,208,942.21,0,1,317,0.16,18.3,17.7,16.5,0.3,0.3,0.4
WFMB,20170701T132500,44.39323,73.85883,614.6,93,18.8,19.0,161,942.19,0,1,303,0.16,18.4,17.7,16.5,0.3,0.3,0.4
WFMB,20170701T133000,44.39323,73.85883,614.6,96,18.8,19.2,148,942.07,0,1,289,0.16,18.4,17.7,16.5,0.3,0.3,0.4
WFMB,20170701T133500,44.39323,73.85883,614.6,96,18.6,19.1,128,942.08,0,0,243,0.16,18.4,17.7,16.5,0.3,0.3,0.4
WFMB,20170701T134000,44.39323,73.85883,614.6,96,18.7,19.1,148,942.0,0,0,191,0.16,18.4,17.7,16.5,0.3,0.3,0.4
WFMB,20170701T134500,44.39323,73.85883,614.6,96,18.8,19.1,175,941.95,0,0,226,0.16,18.4,17.7,16.5,0.3,0.3,0.4
WFMB,20170701T135000,44.39323,73.85883,614.6,96,18.9,19.3,190,942.07,0,0,244,0.16,18.4,17.7,16.5,0.3,0.3,0.4
WFMB,20170701T135500,44.39323,73.85883,614.6,94,19.1,19.5,209,942.07,0,0,0,0.16,18.4,17.7,16.5,0.3,0.3,0.4
WFMB,20170701T140000,44.39323,73.85883,614.6,89,19.4,19.8,213,942.08,0,0,0,0.16,18.4,17.7,16.5,0.3,0.3,0.4
WFMB,20170701T140500,44.39323,73.85883,614.6,90,19.5,19.7,251,941.98,0,0,124,0.16,18.5,17.7,16.5,0.3,0.3,0.4
WFMB,20170701T141000,44.39323,73.85883,614.6,90,19.7,19.8,248,941.92,0,1,4,0.16,18.6,17.7,16.5,0.3,0.3,0.4
WFMB,20170701T141500,44.39323,73.85883,614.6,84,19.8,19.9,209,941.93,0,1,1,0.16,18.6,17.7,16.5,0.3,0.3,0.4
WFMB,20170701T142000,44.39323,73.85883,614.6,86,19.7,19.8,148,941.93,0,0,42,0.16,18.7,17.7,16.5,0.3,0.3,0.4
WFMB,20170701T142500,44.39323,73.85883,614.6,87,19.7,19.8,188,941.93,0,0,16,0.16,18.8,17.7,16.5,0.3,0.3,0.4
WFMB,20170701T143000,44.39323,73.85883,614.6,88,19.8,19.8,202,941.94,0,1,30,0.16,18.8,17.7,16.5,0.3,0.3,0.4
WFMB,20170701T143500,44.39323,73.85883,614.6,87,19.9,19.9,221,941.96,0,1,22,0.16,18.8,17.7,16.5,0.3,0.3,0.4
WFMB,20170701T144000,44.39323,73.85883,614.6,84,20.0,19.9,208,941.98,0,1,29,0.16,18.8,17.7,16.5,0.3,0.3,0.4
WFMB,20170701T144500,44.39323,73.85883,614.6,86,19.9,19.9,203,941.97,0,0,30,0.16,18.8,17.6,16.5,0.3,0.3,0.4
WFMB,20170701T145000,44.39323,73.85883,614.6,88,19.7,19.9,173,942.03,0,1,252,0.16,18.8,17.6,16.5,0.3,0.3,0.4
WFMB,20170701T145500,44.39323,73.85883,614.6,87,20.0,19.9,146,942.05,0,0,15,0.16,18.8,17.6,16.5,0.3,0.3,0.4
WFMB,20170701T150000,44.39323,73.85883,614.6,91,19.6,19.7,117,942.12,0,1,84,0.16,18.9,17.6,16.5,0.3,0.3,0.4
WFMB,20170701T150500,44.39323,73.85883,614.6,94,19.4,19.5,90,942.11,0,1,10,0.16,18.9,17.6,16.5,0.3,0.3,0.4
WFMB,20170701T151000,44.39323,73.85883,614.6,97,19.1,19.3,81,941.94,1,1,73,0.47,18.9,17.5,16.5,0.3,0.3,0.4
WFMB,20170701T151500,44.39323,73.85883,614.6,99,19.1,19.0,75,941.87,1,2,135,0.59,18.9,17.5,16.5,0.3,0.3,0.4
WFMB,20170701T152000,44.39323,73.85883,614.6,99,18.9,18.9,75,941.84,1,1,138,0.67,18.9,17.5,16.5,0.3,0.3,0.4
WFMB,20170701T152500,44.39323,73.85883,614.6,100,18.8,18.8,92,941.94,1,1,139,0.87,18.9,17.5,16.5,0.3,0.3,0.4
WFMB,20170701T153000,44.39323,73.85883,614.6,99,19.0,19.1,115,941.96,1,4,183,0.99,18.9,17.6,16.5,0.3,0.3,0.4
WFMB,20170701T153500,44.39323,73.85883,614.6,99,19.3,19.4,126,941.78,1,4,133,1.03,19.0,17.5,16.5,0.3,0.3,0.4
WFMB,20170701T154000,44.39323,73.85883,614.6,99,19.0,19.0,140,941.67,1,2,138,1.03,19.1,17.5,16.5,0.3,0.3,0.4
WFMB,20170701T154500,44.39323,73.85883,614.6,100,19.0,18.9,167,941.63,0,1,151,1.26,19.1,17.5,16.5,0.3,0.3,0.4
WFMB,20170701T155000,44.39323,73.85883,614.6,100,18.9,18.8,171,941.52,1,1,109,1.34,19.1,17.5,16.5,0.3,0.3,0.4
WFMB,20170701T155500,44.39323,73.85883,614.6,100,19.0,18.9,136,941.5,1,2,81,1.34,19.1,17.5,16.5,0.3,0.3,0.4
WFMB,20170701T160000,44.39323,73.85883,614.6,100,19.0,19.0,121,941.54,1,3,83,1.43,19.1,17.5,16.5,0.3,0.3,0.4
WFMB,20170701T160500,44.39323,73.85883,614.6,98,19.2,19.3,119,941.55,1,3,143,1.5,19.1,17.5,16.5,0.3,0.3,0.4
WFMB,20170701T161000,44.39323,73.85883,614.6,97,19.1,19.2,131,941.63,1,2,184,1.51,19.1,17.5,16.5,0.3,0.3,0.4
WFMB,20170701T161500,44.39323,73.85883,614.6,95,19.0,19.1,173,941.61,1,4,166,1.51,19.1,17.5,16.5,0.3,0.3,0.4
WFMB,20170701T162000,44.39323,73.85883,614.6,96,18.9,19.1,136,941.57,1,2,158,1.77,19.1,17.5,16.5,0.3,0.3,0.4
WFMB,20170701T162500,44.39323,73.85883,614.6,96,18.9,19.1,191,941.34,0,2,197,1.9,19.1,17.5,16.5,0.3,0.3,0.4
WFMB,20170701T163000,44.39323,73.85883,614.6,99,19.0,19.2,272,941.19,1,2,35,1.94,19.1,17.6,16.5,0.3,0.3,0.4
WFMB,20170701T163500,44.39323,73.85883,614.6,100,19.1,19.4,270,941.05,1,2,43,1.94,19.1,17.5,16.5,0.3,0.3,0.4
WFMB,20170701T164000,44.39323,73.85883,614.6,99,19.3,19.3,263,941.12,1,4,9,1.94,19.2,17.5,16.5,0.3,0.3,0.4
WFMB,20170701T164500,44.39323,73.85883,614.6,99,19.4,19.5,286,941.01,1,3,64,2.03,19.3,17.6,16.5,0.3,0.3,0.4
WFMB,20170701T165000,44.39323,73.85883,614.6,100,19.3,19.2,293,940.92,0,2,16,2.03,19.3,17.6,16.5,0.3,0.3,0.4
WFMB,20170701T165500,44.39323,73.85883,614.6,100,19.3,19.1,206,940.84,1,2,68,2.03,19.3,17.6,16.5,0.3,0.3,0.4
WFMB,20170701T170000,44.39323,73.85883,614.6,100,19.2,19.1,132,940.82,0,1,78,2.03,19.3,17.6,16.5,0.3,0.3,0.4
WFMB,20170701T170500,44.39323,73.85883,614.6,100,19.1,19.0,110,940.82,1,1,54,2.03,19.3,17.6,16.5,0.3,0.3,0.4
WFMB,20170701T171000,44.39323,73.85883,614.6,100,19.0,19.0,123,940.75,0,1,83,2.15,19.4,17.7,16.5,0.3,0.3,0.4
WFMB,20170701T171500,44.39323,73.85883,614.6,100,19.0,18.9,160,940.66,1,2,49,2.18,19.5,17.7,16.5,0.3,0.3,0.4
WFMB,20170701T172000,44.39323,73.85883,614.6,100,19.1,19.0,161,940.59,0,1,99,2.22,19.5,17.7,16.5,0.3,0.3,0.4
WFMB,20170701T172500,44.39323,73.85883,614.6,100,19.1,19.0,164,940.51,1,2,54,2.22,19.5,17.7,16.5,0.3,0.3,0.4
WFMB,20170701T173000,44.39323,73.85883,614.6,100,19.1,19.0,225,940.52,1,1,26,2.32,19.5,17.7,16.5,0.3,0.3,0.4
WFMB,20170701T173500,44.39323,73.85883,614.6,100,19.2,19.1,251,940.56,1,2,53,2.36,19.5,17.7,16.5,0.3,0.3,0.4
WFMB,20170701T174000,44.39323,73.85883,614.6,99,19.4,19.7,230,940.43,2,4,255,2.42,19.5,17.7,16.5,0.3,0.3,0.4
WFMB,20170701T174500,44.39323,73.85883,614.6,99,19.4,19.3,162,940.35,1,3,73,2.46,19.5,17.7,16.5,0.3,0.3,0.4
WFMB,20170701T175000,44.39323,73.85883,614.6,100,19.3,19.2,118,940.27,1,2,59,2.5,19.5,17.7,16.5,0.3,0.3,0.4
WFMB,20170701T175500,44.39323,73.85883,614.6,100,19.3,19.2,86,940.18,1,2,47,2.56,19.6,17.7,16.5,0.3,0.3,0.4